Location: McFarlands Corners
(41.4117°N, 81.3382°W)
Time: 18:23:46
(UTC+00:00)

Transit 4A - Pass Details

Date: 24 February 2026
Orbit: 864 x 977 km, 66.8° (Epoch: 10 March)

Event Time Altitude Azimuth Distance (km) Brightness Sun altitude
Rises 08:09:10 0° 223° (SW) 3,449 - -43.9°
Reaches altitude 10° 08:11:40 10° 228° (SW) 2,525 - -43.5°
Maximum altitude 08:17:22 53° 305° (NW) 1,084 - -42.6°
Exits shadow 08:22:03 16° 18° (NNE) 2,177 10.2 -41.9°
Drops below altitude 10° 08:23:16 10° 22° (NNE) 2,608 10.7 -41.7°
Sets 08:25:55 0° 27° (NNE) 3,572 11.6 -41.3°
